Location: Artiguedieu
(43.5000°N, 0.5454°E)
Time: 12:27:08
(UTC+00:00)

Cosmos 1242 Rocket - Pass Details

Date: 06 December 2020
Orbit: 446 x 486 km, 81.2° (Epoch: 27 January)

Event Time Altitude Azimuth Distance (km) Brightness Sun altitude
Exits shadow 05:54:53 - 350° (N) 2,059 5.5 -14.3°
Reaches altitude 10° 05:55:48 10° 351° (N) 1,680 5.0 -14.1°
Maximum altitude 05:59:29 85° 82° (E) 495 2.6 -13.5°
Drops below altitude 10° 06:03:09 10° 169° (S) 1,666 5.7 -12.9°
Sets 06:05:14 0° 170° (S) 2,539 6.6 -12.5°
